Time,TemperatureF,DewpointF,PressureIn,WindDirection,WindDirectionDegrees,WindSpeedMPH,WindSpeedGustMPH,Humidity,HourlyPrecipIn,Conditions,Clouds,dailyrainin,SoftwareType,DateUTC
2013-08-04 00:09:00,67.6,67.0,30.18,SW,222,0.0,0.0,96,0.00,,,0.00,weatherlink.com 1.10,2013-08-04 04:09:00,
2013-08-04 00:24:00,67.3,66.0,30.17,SW,221,0.0,0.0,96,0.00,,,0.00,weatherlink.com 1.10,2013-08-04 04:24:00,
2013-08-04 00:39:00,67.2,66.0,30.17,SW,222,0.0,0.0,97,0.00,,,0.00,weatherlink.com 1.10,2013-08-04 04:39:00,
2013-08-04 00:54:00,67.0,66.0,30.17,SW,222,0.0,0.0,97,0.00,,,0.00,weatherlink.com 1.10,2013-08-04 04:54:00,
2013-08-04 01:10:00,66.8,66.0,30.17,SW,222,0.0,0.0,97,0.00,,,0.00,weatherlink.com 1.10,2013-08-04 05:10:00,
2013-08-04 01:25:00,66.4,66.0,30.17,SW,222,0.0,0.0,97,0.00,,,0.00,weatherlink.com 1.10,2013-08-04 05:25:00,
2013-08-04 01:40:00,66.1,65.0,30.17,SW,222,0.0,0.0,97,0.00,,,0.00,weatherlink.com 1.10,2013-08-04 05:40:00,
2013-08-04 01:55:00,65.8,65.0,30.16,SW,222,0.0,0.0,97,0.00,,,0.00,weatherlink.com 1.10,2013-08-04 05:55:00,
2013-08-04 02:09:00,65.6,65.0,30.16,SW,222,0.0,0.0,97,0.00,,,0.00,weatherlink.com 1.10,2013-08-04 06:09:00,
2013-08-04 02:25:00,65.4,65.0,30.16,SW,221,0.0,0.0,97,0.00,,,0.00,weatherlink.com 1.10,2013-08-04 06:25:00,
2013-08-04 02:40:00,65.4,65.0,30.15,SW,222,0.0,0.0,98,0.00,,,0.00,weatherlink.com 1.10,2013-08-04 06:40:00,
2013-08-04 02:55:00,65.4,65.0,30.14,SW,222,0.0,0.0,98,0.00,,,0.00,weatherlink.com 1.10,2013-08-04 06:55:00,
2013-08-04 03:09:00,65.4,65.0,30.15,SW,221,0.0,0.0,98,0.00,,,0.00,weatherlink.com 1.10,2013-08-04 07:09:00,
2013-08-04 03:24:00,65.5,65.0,30.15,SW,222,0.0,0.0,98,0.00,,,0.00,weatherlink.com 1.10,2013-08-04 07:24:00,
2013-08-04 03:39:00,65.7,65.0,30.14,SW,222,0.0,0.0,98,0.00,,,0.00,weatherlink.com 1.10,2013-08-04 07:39:00,
2013-08-04 03:55:00,65.8,65.0,30.14,SW,222,0.0,0.0,98,0.00,,,0.00,weatherlink.com 1.10,2013-08-04 07:55:00,
2013-08-04 04:10:00,65.8,65.0,30.15,SW,220,0.0,0.0,97,0.00,,,0.00,weatherlink.com 1.10,2013-08-04 08:10:00,
2013-08-04 04:25:00,65.6,65.0,30.15,SW,214,0.0,1.0,97,0.00,,,0.00,weatherlink.com 1.10,2013-08-04 08:25:00,
2013-08-04 04:40:00,65.2,64.0,30.15,SW,214,0.0,0.0,97,0.00,,,0.00,weatherlink.com 1.10,2013-08-04 08:40:00,
2013-08-04 04:55:00,65.0,64.0,30.14,SW,215,0.0,0.0,97,0.00,,,0.00,weatherlink.com 1.10,2013-08-04 08:55:00,
2013-08-04 05:10:00,64.8,64.0,30.15,SW,228,0.0,1.0,97,0.00,,,0.00,weatherlink.com 1.10,2013-08-04 09:10:00,
2013-08-04 05:25:00,64.5,64.0,30.14,SW,219,0.0,0.0,97,0.00,,,0.00,weatherlink.com 1.10,2013-08-04 09:25:00,
2013-08-04 05:40:00,64.2,63.0,30.14,SW,218,0.0,0.0,97,0.00,,,0.00,weatherlink.com 1.10,2013-08-04 09:40:00,
2013-08-04 05:55:00,64.3,64.0,30.15,SW,229,0.0,1.0,98,0.00,,,0.00,weatherlink.com 1.10,2013-08-04 09:55:00,
2013-08-04 06:10:00,64.3,64.0,30.16,SW,219,0.0,1.0,98,0.00,,,0.00,weatherlink.com 1.10,2013-08-04 10:10:00,
2013-08-04 06:25:00,64.4,64.0,30.16,South,183,0.0,1.0,98,0.00,,,0.00,weatherlink.com 1.10,2013-08-04 10:25:00,
2013-08-04 06:40:00,64.2,64.0,30.16,SW,226,0.0,1.0,98,0.00,,,0.00,weatherlink.com 1.10,2013-08-04 10:40:00,
2013-08-04 06:55:00,64.2,64.0,30.16,SW,225,0.0,1.0,98,0.00,,,0.00,weatherlink.com 1.10,2013-08-04 10:55:00,
2013-08-04 07:10:00,64.3,64.0,30.16,SSW,203,0.0,0.0,98,0.00,,,0.00,weatherlink.com 1.10,2013-08-04 11:10:00,
2013-08-04 07:25:00,64.2,64.0,30.16,SSW,203,0.0,0.0,98,0.00,,,0.00,weatherlink.com 1.10,2013-08-04 11:25:00,
2013-08-04 07:40:00,64.5,64.0,30.16,SSW,204,0.0,0.0,98,0.00,,,0.00,weatherlink.com 1.10,2013-08-04 11:40:00,
2013-08-04 07:55:00,64.5,64.0,30.16,WSW,242,0.0,0.0,98,0.00,,,0.00,weatherlink.com 1.10,2013-08-04 11:55:00,
2013-08-04 08:10:00,64.6,64.0,30.17,WSW,242,0.0,0.0,98,0.00,,,0.00,weatherlink.com 1.10,2013-08-04 12:10:00,
2013-08-04 08:25:00,65.0,65.0,30.17,South,183,0.0,1.0,98,0.00,,,0.00,weatherlink.com 1.10,2013-08-04 12:25:00,
2013-08-04 08:40:00,66.0,66.0,30.17,WNW,287,0.0,1.0,98,0.00,,,0.00,weatherlink.com 1.10,2013-08-04 12:40:00,
2013-08-04 08:55:00,67.7,66.0,30.17,SW,219,0.0,1.0,95,0.00,,,0.00,weatherlink.com 1.10,2013-08-04 12:55:00,
2013-08-04 09:10:00,69.6,67.0,30.17,West,259,0.0,2.0,92,0.00,,,0.00,weatherlink.com 1.10,2013-08-04 13:10:00,
2013-08-04 09:25:00,70.6,67.0,30.17,WSW,252,0.0,1.0,89,0.00,,,0.00,weatherlink.com 1.10,2013-08-04 13:25:00,
2013-08-04 09:40:00,73.9,68.0,30.17,West,273,0.0,3.0,82,0.00,,,0.00,weatherlink.com 1.10,2013-08-04 13:40:00,
2013-08-04 09:55:00,77.4,69.0,30.17,NE,37,0.0,3.0,76,0.00,,,0.00,weatherlink.com 1.10,2013-08-04 13:55:00,
2013-08-04 10:25:00,80.8,70.0,30.17,NNE,30,0.0,3.0,69,0.00,,,0.00,weatherlink.com 1.10,2013-08-04 14:25:00,
2013-08-04 10:40:00,81.5,68.0,30.16,SE,146,2.0,4.0,63,0.00,,,0.00,weatherlink.com 1.10,2013-08-04 14:40:00,
2013-08-04 10:55:00,81.0,67.0,30.16,SSE,159,2.0,8.0,62,0.00,,,0.00,weatherlink.com 1.10,2013-08-04 14:55:00,
2013-08-04 11:10:00,81.9,71.0,30.16,ESE,112,2.0,6.0,69,0.00,,,0.00,weatherlink.com 1.10,2013-08-04 15:10:00,
2013-08-04 11:26:00,82.9,69.0,30.16,ESE,113,0.0,4.0,64,0.00,,,0.00,weatherlink.com 1.10,2013-08-04 15:26:00,
2013-08-04 11:41:00,83.4,67.0,30.16,East,101,0.0,7.0,57,0.00,,,0.00,weatherlink.com 1.10,2013-08-04 15:41:00,
2013-08-04 11:56:00,84.0,69.0,30.16,ENE,63,2.0,6.0,61,0.00,,,0.00,weatherlink.com 1.10,2013-08-04 15:56:00,
2013-08-04 12:10:00,83.4,67.0,30.16,NNE,26,1.0,7.0,58,0.00,,,0.00,weatherlink.com 1.10,2013-08-04 16:10:00,
2013-08-04 12:26:00,84.3,69.0,30.15,WSW,242,2.0,8.0,60,0.00,,,0.00,weatherlink.com 1.10,2013-08-04 16:26:00,
2013-08-04 12:41:00,84.8,71.0,30.15,ESE,121,5.0,7.0,64,0.00,,,0.00,weatherlink.com 1.10,2013-08-04 16:41:00,
2013-08-04 12:56:00,84.3,67.0,30.16,SW,220,0.0,9.0,56,0.00,,,0.00,weatherlink.com 1.10,2013-08-04 16:56:00,
2013-08-04 13:11:00,84.3,66.0,30.15,SE,124,1.0,6.0,55,0.00,,,0.00,weatherlink.com 1.10,2013-08-04 17:11:00,
2013-08-04 13:26:00,84.7,67.0,30.15,SE,132,0.0,5.0,56,0.00,,,0.00,weatherlink.com 1.10,2013-08-04 17:26:00,
2013-08-04 13:41:00,84.3,67.0,30.15,East,96,0.0,5.0,57,0.00,,,0.00,weatherlink.com 1.10,2013-08-04 17:41:00,
2013-08-04 13:56:00,84.9,66.0,30.15,SSE,153,3.0,8.0,54,0.00,,,0.00,weatherlink.com 1.10,2013-08-04 17:56:00,
2013-08-04 14:10:00,84.6,69.0,30.14,WSW,253,1.0,3.0,60,0.00,,,0.00,weatherlink.com 1.10,2013-08-04 18:10:00,
2013-08-04 14:26:00,84.6,68.0,30.14,SE,131,0.0,3.0,57,0.00,,,0.00,weatherlink.com 1.10,2013-08-04 18:26:00,
2013-08-04 14:40:00,83.9,66.0,30.14,ESE,121,3.0,5.0,55,0.00,,,0.00,weatherlink.com 1.10,2013-08-04 18:40:00,
2013-08-04 14:55:00,82.7,67.0,30.14,East,91,1.0,4.0,59,0.00,,,0.00,weatherlink.com 1.10,2013-08-04 18:55:00,
2013-08-04 15:11:00,81.8,68.0,30.14,ENE,71,0.0,6.0,63,0.00,,,0.00,weatherlink.com 1.10,2013-08-04 19:11:00,
2013-08-04 15:26:00,80.5,69.0,30.14,SW,225,0.0,5.0,69,0.00,,,0.00,weatherlink.com 1.10,2013-08-04 19:26:00,
2013-08-04 15:41:00,80.2,67.0,30.14,East,83,5.0,5.0,65,0.00,,,0.00,weatherlink.com 1.10,2013-08-04 19:41:00,
2013-08-04 15:56:00,78.9,67.0,30.14,SSE,155,1.0,8.0,68,0.00,,,0.00,weatherlink.com 1.10,2013-08-04 19:56:00,
2013-08-04 16:11:00,80.4,68.0,30.14,East,80,2.0,6.0,65,0.00,,,0.00,weatherlink.com 1.10,2013-08-04 20:11:00,
2013-08-04 16:26:00,80.0,68.0,30.14,SW,219,0.0,6.0,66,0.00,,,0.00,weatherlink.com 1.10,2013-08-04 20:26:00,
2013-08-04 16:41:00,79.9,69.0,30.14,NNE,27,0.0,4.0,70,0.00,,,0.00,weatherlink.com 1.10,2013-08-04 20:41:00,
2013-08-04 16:56:00,78.8,68.0,30.14,ENE,65,0.0,7.0,69,0.00,,,0.00,weatherlink.com 1.10,2013-08-04 20:56:00,
2013-08-04 17:11:00,78.2,67.0,30.14,SE,145,3.0,6.0,69,0.00,,,0.00,weatherlink.com 1.10,2013-08-04 21:11:00,
2013-08-04 17:26:00,79.0,65.0,30.14,SSE,154,0.0,6.0,63,0.00,,,0.00,weatherlink.com 1.10,2013-08-04 21:26:00,
2013-08-04 17:41:00,80.7,66.0,30.14,SSE,160,1.0,5.0,61,0.00,,,0.00,weatherlink.com 1.10,2013-08-04 21:41:00,
2013-08-04 17:56:00,80.3,67.0,30.14,SSE,155,1.0,3.0,63,0.00,,,0.00,weatherlink.com 1.10,2013-08-04 21:56:00,
2013-08-04 18:11:00,79.1,66.0,30.14,SE,146,0.0,2.0,65,0.00,,,0.00,weatherlink.com 1.10,2013-08-04 22:11:00,
2013-08-04 18:26:00,78.7,66.0,30.14,SE,128,2.0,5.0,66,0.00,,,0.00,weatherlink.com 1.10,2013-08-04 22:26:00,
2013-08-04 18:41:00,78.6,66.0,30.14,East,81,0.0,2.0,65,0.00,,,0.00,weatherlink.com 1.10,2013-08-04 22:41:00,
2013-08-04 18:56:00,77.3,65.0,30.14,ESE,104,0.0,2.0,65,0.00,,,0.00,weatherlink.com 1.10,2013-08-04 22:56:00,
2013-08-04 19:11:00,75.9,65.0,30.14,ESE,102,0.0,4.0,69,0.00,,,0.00,weatherlink.com 1.10,2013-08-04 23:11:00,
2013-08-04 19:26:00,74.9,64.0,30.15,East,91,0.0,1.0,69,0.00,,,0.00,weatherlink.com 1.10,2013-08-04 23:26:00,
2013-08-04 19:56:00,72.7,64.0,30.16,ESE,112,0.0,0.0,75,0.00,,,0.00,weatherlink.com 1.10,2013-08-04 23:56:00,
2013-08-04 20:11:00,71.6,61.0,30.17,ESE,111,0.0,0.0,69,0.00,,,0.00,weatherlink.com 1.10,2013-08-05 00:11:00,
2013-08-04 20:26:00,70.3,60.0,30.17,ESE,112,0.0,0.0,71,0.00,,,0.00,weatherlink.com 1.10,2013-08-05 00:26:00,
2013-08-04 20:41:00,69.4,61.0,30.17,East,96,0.0,0.0,74,0.00,,,0.00,weatherlink.com 1.10,2013-08-05 00:41:00,
2013-08-04 20:56:00,68.1,61.0,30.17,East,95,0.0,0.0,78,0.00,,,0.00,weatherlink.com 1.10,2013-08-05 00:56:00,
2013-08-04 21:26:00,66.9,62.0,30.18,East,96,0.0,0.0,84,0.00,,,0.00,weatherlink.com 1.10,2013-08-05 01:26:00,
2013-08-04 21:41:00,66.3,62.0,30.19,East,94,0.0,0.0,86,0.00,,,0.00,weatherlink.com 1.10,2013-08-05 01:41:00,
2013-08-04 21:56:00,66.1,62.0,30.20,East,95,0.0,0.0,86,0.00,,,0.00,weatherlink.com 1.10,2013-08-05 01:56:00,
2013-08-04 22:11:00,65.9,62.0,30.20,East,96,0.0,0.0,87,0.00,,,0.00,weatherlink.com 1.10,2013-08-05 02:11:00,
2013-08-04 22:41:00,65.1,61.0,30.21,East,92,0.0,0.0,87,0.00,,,0.00,weatherlink.com 1.10,2013-08-05 02:41:00,
2013-08-04 22:56:00,64.9,61.0,30.21,East,88,0.0,0.0,88,0.00,,,0.00,weatherlink.com 1.10,2013-08-05 02:56:00,
2013-08-04 23:26:00,64.3,61.0,30.20,East,88,0.0,0.0,89,0.00,,,0.00,weatherlink.com 1.10,2013-08-05 03:26:00,
2013-08-04 23:41:00,63.4,61.0,30.20,East,87,0.0,0.0,91,0.00,,,0.00,weatherlink.com 1.10,2013-08-05 03:41:00,
2013-08-04 23:56:00,62.8,61.0,30.21,East,88,0.0,0.0,92,0.00,,,0.00,weatherlink.com 1.10,2013-08-05 03:56:00,